This demonstration page uses our WeatherBlox Daily Observations layout. Learn more.

Left ArrowRight Arrow

53.62937, 11.41316

Hourly Observations for February 26, 2017

Temp ( °F °C ) Dew Point ( °F °C ) Humidity (%) Winds ( mph kmh ) Pressure ( in mb ) Visibility ( mi km ) Precip ( " mm )
6:50 am 06:50 Mostly Cloudy with Light Rain 43 6 41 5 93 93 WSW 14 22 29.71 1006 6 9 N/A
7:20 am 07:20 Mostly Cloudy with Light Rain 43 6 41 5 93 93 WSW 14 22 29.71 1006 30 48 N/A
7:50 am 07:50 Mostly Cloudy with Light Rain 43 6 41 5 93 93 WSW 15 24 29.71 1006 4 6 N/A
8:20 am 08:20 Mostly Cloudy with Drizzle 43 6 41 5 93 93 WSW 14 22 29.71 1006 3 4 N/A
8:50 am 08:50 Mostly Cloudy with Mist and Fog 43 6 43 6 100 100 SW 15 24 29.71 1006 3 5 N/A
9:20 am 09:20 Mostly Cloudy with Light Rain 43 6 43 6 100 100 WSW 16 26 29.71 1006 3 5 N/A
9:50 am 09:50 Mostly Cloudy with Mist and Fog 45 7 43 6 93 93 SW 15 24 29.71 1006 3 5 N/A
10:20 am 10:20 Mostly Cloudy with Mist and Fog 45 7 43 6 93 93 WSW 15 24 29.71 1006 3 4 N/A
10:50 am 10:50 Mostly Cloudy 45 7 43 6 93 93 WSW 15 24 29.74 1007 3 5 N/A
11:20 am 11:20 Mostly Cloudy 45 7 43 6 93 93 WSW 15 24 29.71 1006 5 8 N/A
11:50 am 11:50 Mostly Cloudy 45 7 43 6 93 93 WSW 17 28 29.74 1007 5 8 N/A
12:20 pm 12:20 Mostly Cloudy 45 7 43 6 93 93 WSW 15 24 29.74 1007 4 7 N/A
12:50 pm 12:50 Mostly Cloudy 45 7 43 6 93 93 SW 13 20 29.71 1006 3 5 N/A
1:20 pm 13:20 Cloudy with Mist and Fog 45 7 45 7 100 100 SW 14 22 29.71 1006 3 5 N/A
1:50 pm 13:50 Cloudy with Mist and Fog 45 7 45 7 100 100 WSW 16 26 29.74 1007 3 5 N/A
2:20 pm 14:20 Cloudy with Mist and Fog 46 8 45 7 93 93 WSW 14 22 29.71 1006 3 5 N/A
2:50 pm 14:50 Cloudy with Mist and Fog 46 8 45 7 93 93 SW 13 20 29.71 1006 2 4 N/A
3:20 pm 15:20 Cloudy with Mist and Fog 46 8 45 7 93 93 SW 14 22 29.71 1006 3 5 N/A
3:50 pm 15:50 Cloudy with Mist and Fog 46 8 45 7 93 93 SW 14 22 29.71 1006 3 5 N/A
4:20 pm 16:20 Cloudy with Light Rain 46 8 45 7 93 93 WSW 15 24 29.74 1007 2 3 N/A
4:50 pm 16:50 Cloudy with Mist and Fog 46 8 45 7 93 93 SW 14 22 29.71 1006 3 4 N/A
5:20 pm 17:20 Mostly Cloudy 46 8 45 7 93 93 SW 14 22 29.74 1007 4 6 N/A
5:50 pm 17:50 Mostly Cloudy 46 8 45 7 93 93 SW 13 20 29.74 1007 4 6 N/A
6:20 pm 18:20 Mostly Cloudy 46 8 45 7 93 93 SW 12 19 29.74 1007 4 7 N/A

Powered by AerisWeather